Regional Weather Roundup
Issued by NWS

Home | Current Version | Previous Version | Graphics & Text | Print | Product List | Glossary On
Versions: 1 2 3 4 5 6 7 8 9 10 11 12 13 14 15 16 17 18 19 20 21 22 23 24 25 26 27 28 29 30 31 32 33 34 35 36 37 38 39 40 41 42 43 44 45 46 47 48 49 50
000
ASUS43 KBIS 301910
RWRND

NORTH DAKOTA REGIONAL WEATHER ROUNDUP
NATIONAL WEATHER SERVICE BISMARCK ND
200 PM CDT TUE AUG 30 2016

NOTE: "FAIR" INDICATES FEW OR NO CLOUDS BELOW 12,000 FEET WITH NO
SIGNIFICANT WEATHER AND/OR OBSTRUCTIONS TO VISIBILITY.


NDZ001>003-009>011-017-302000-
NORTHWEST NORTH DAKOTA

CITY           SKY/WX    TMP DP  RH WIND       PRES   REMARKS
WILLISTON      CLOUDY    80  50  34 S13       30.15F
MINOT          SUNNY     81  43  26 SE12      30.23F
MINOT AFB      SUNNY     82  45  27 S13       30.22F
$$

NDZ018>021-031>035-040>046-302000-
SOUTHWEST NORTH DAKOTA

CITY           SKY/WX    TMP DP  RH WIND       PRES   REMARKS
BISMARCK       SUNNY     81  45  28 SE7       30.23F
DICKINSON      CLOUDY    79  52  38 SE17      30.20F
GARRISON         N/A     80  47  31 SE10      30.23F
HETTINGER ARPT SUNNY     82  60  47 SE13      30.24F
$$

NDZ004>008-012>016-024-026-027-054-302000-
NORTHEAST NORTH DAKOTA

CITY           SKY/WX    TMP DP  RH WIND       PRES   REMARKS
GRAND FORKS    MOSUNNY   78  51  38 W3        30.22F
GRND FRKS AFB  SUNNY     77  51  40 N2        30.23F
DEVILS LAKE    SUNNY     74  50  42 VRB6      30.26F
$$

NDZ022-023-025-028>030-036>039-047>053-302000-
SOUTHEAST NORTH DAKOTA

CITY           SKY/WX    TMP DP  RH WIND       PRES   REMARKS
FARGO          SUNNY     79  52  38 CALM      30.23S
JAMESTOWN      SUNNY     78  50  37 VRB3      30.24F
$$





USA.gov is the U.S. government's official web portal to all federal, state and local government web resources and services.